Regional Weather Roundup
Issued by NWS Cleveland, OH

Home | Current Version | Previous Version | Graphics & Text | Print | Product List | Glossary Off
Versions: 1 2 3 4 5 6 7 8 9 10 11 12 13 14 15 16 17 18 19 20 21 22 23 24 25 26 27 28 29 30 31 32 33 34 35 36 37 38 39 40 41 42 43 44 45 46 47 48 49 50

000
ASUS41 KCLE 290212
RWRCLE
OHIO REGIONAL WEATHER ROUNDUP
NATIONAL WEATHER SERVICE WILMINGTON, OH
1000 PM EDT TUE MAR 28 2017

NOTE: "FAIR" INDICATES FEW OR NO CLOUDS BELOW 12,000 FEET WITH NO
SIGNIFICANT WEATHER AND/OR OBSTRUCTIONS TO VISIBILITY.

OHZ001>008-015>018-024>027-034-035-043-044-290300-
   NORTHWEST OHIO

CITY           SKY/WX    TMP DP  RH WIND       PRES   REMARKS
DEFIANCE       CLOUDY    45  39  79 NE7       30.19R
FINDLAY        CLOUDY    48  38  68 NE6       30.16R
TOLEDO EXPRESS FAIR      44  39  82 N6        30.18R
TOLEDO EXEC    MOCLDY    46  40  79 N3        30.18R
LIMA           CLOUDY    46  43  89 NE6       30.16R
$$

OHZ009>014-019>023-028>033-038-089-290300-
   NORTHEAST OHIO

CITY           SKY/WX    TMP DP  RH WIND       PRES   REMARKS
CLE-HOPKINS    CLOUDY    41  36  82 N9        30.18R
CLE-LAKEFRONT  CLOUDY    39  37  92 E6        30.16R
CUY CO. ARPT   CLOUDY    41  39  93 VRB5      30.16R
LORAIN-ELYRIA  CLOUDY    39  35  86 NE10      30.17R
ASHTABULA      CLOUDY    41  39  93 NW6       30.14R
AKRON-CANTON   CLOUDY    42  38  85 N6        30.13R
WOOSTER        CLOUDY    41  37  86 N9        30.15R
MANSFIELD      CLOUDY    42  38  85 N6        30.15R
YOUNGSTOWN     CLOUDY    42  40  92 NW8       30.12R
$$

OHZ042-051>053-060>062-070>072-077>081-290300-
  SOUTHWEST OHIO

CITY           SKY/WX    TMP DP  RH WIND       PRES   REMARKS
CINC-COVINGTON CLOUDY    54  48  80 N10       30.12R
CINC-LUNKEN    CLOUDY    56  49  77 N7        30.13R
HAMILTON       CLOUDY    54  49  83 N6        30.15R
DAYTON         CLOUDY    49  44  83 N9        30.15R
WRIGHT-PAT AFB CLOUDY    50  48  93 N8        30.14R
DAYTON GENERAL CLOUDY    51  46  83 N10       30.13R
WILMINGTON     CLOUDY    50  46  86 N9        30.12R
$$

OHZ036-037-039>041-045>050-054>059-063>069-073>076-082>088-290300-
  CENTRAL AND SOUTHEAST OHIO

CITY           SKY/WX    TMP DP  RH WIND       PRES   REMARKS
COLUMBUS       CLOUDY    48  42  80 N10       30.13R
OSU AIRPORT    CLOUDY    47  42  83 N10       30.14R
BOLTON FIELD   CLOUDY    47  43  85 N9        30.15R
RICKENBACK AFB CLOUDY    49  44  82 N12       30.14R
NEWARK         CLOUDY    48  41  76 N6        30.13R
MARION         CLOUDY    44  39  82 NE15      30.16R
LANCASTER      CLOUDY    51  44  77 N13       30.13R
ZANESVILLE     CLOUDY    48  40  73 N9        30.12R
NEW PHILLY     CLOUDY    46  41  82 NW9       30.14R
$$



USA.gov is the U.S. government's official web portal to all federal, state and local government web resources and services.